星链-35907(STARLINK-35907)

导读 | 豆包AI

STARLINK-35907是美国于2025年11月15日发射的星链卫星,隶属于SpaceX公司的星链星座项目。星链项目旨在构建全球卫星互联网星座,为全球各地提供低延迟、高速率的宽带互联网服务。该卫星的成功发射进一步扩充了星链星座的在轨规模,推动星座组网进程,助力覆盖更多未接入互联网的区域。

基本信息
目录编号:
66498
目录名称:
STARLINK-35907
国际标识:
2025-263P
轨道中心:
EARTH
卫星名称:
星链-35907
卫星全名:
星链-35907(STARLINK-35907)
卫星状态:
在轨 (已飞行119 天)
发射日期:
2025-11-15 UTC
国别 :
美国 (US)
星等 :
--
轨道信息
数据来源 国际轨道数据
星历时间: 2026-03-14T07:38:46+0800
6小时前
查看轨道信息
半长轴: 6861.121km
偏心率: 0.0001359
轨道倾角: 42.999°
近地点辐角 252.922°
升交点赤经 326.632°
平近点角 107.148°
近地点: 482.051km
远地点: 483.917km
周期: 94.265分钟
每日圈数: 15.276019
详细信息
固有亮度:
5
最大亮度:
2.5
卫星平台:
Starlink V1.0
覆盖范围:
全球
运营商:
太空探索技术公司
运营商所在国:
美国
制造商(研发单位):
太空探索技术公司
制造商所在国:
美国
使用方式:
暂无
卫星简介
Starlink 计划是 SpaceX 推出的全球卫星互联网项目,通过发射低轨道卫星,为全球尤其是偏远地区提供高速、低延迟的互联网服务。自 2019 年起,Starlink 已部署数千颗卫星,旨在缩小全球数字鸿沟,推动互联网普及。该项目还为军事、航空等行业提供通信支持,带来广泛经济效益。
2D轨道图
3D轨道图
轨道高度分析图
轨道倾角分析图
轨道综合分析图
查看轨道综合分析图